Tracking 28790 objects as of 19-Apr-2024
HD Live streaming from Space Station
objects crossing your sky now

SL-12 R/B(AUX MOTOR)

Track SL-12 R/B(AUX MOTOR) now!
10-day predictions


NORAD ID: 21220
Int'l Code: 1991-025F
Perigee: 422.1 km
Apogee: 18,142.5 km
Inclination: 64.7 °
Period: 324.8 minutes
Semi major axis: 15653 km
RCS: 0.65 m2 (medium)
Launch date: April 4, 1991
Source: Commonwealth of Independent States (former USSR) (CIS)
Launch site: TYURATAM MISSILE AND SPACE COMPLEX (TTMTR)

Note: This is a ROCKET BODY
Your satellite tracking list
Your tracking list is empty




NASA's NSSDC Master Catalog

Two Line Element Set (TLE):
1 21220U 91025F   24109.45101483  .00002539  00000-0  26505-2 0  9995
2 21220  64.7335 179.0801 5660282 154.4200 250.3602  4.43296757515813
Source of the keplerian elements: AFSPC